Location: Chamerau
(49.1969°N, 12.7525°E)
Time: 05:29:26
(UTC+00:00)

H-2A R/B - Pass Details

Date: 18 September 2020
Orbit: 734 x 836 km, 98.2° (Epoch: 22 October)

Event Time Altitude Azimuth Distance (km) Brightness Sun altitude
Rises 19:14:15 0° 200° (SSW) 3,161 5.1 -19.6°
Reaches altitude 10° 19:16:54 10° 213° (SSW) 2,252 4.5 -20.0°
Maximum altitude 19:20:55 25° 268° (W) 1,503 4.1 -20.5°
Drops below altitude 10° 19:25:03 10° 323° (NW) 2,308 5.4 -21.1°
Sets 19:27:48 0° 337° (NNW) 3,257 6.1 -21.5°
